TimeCDT,TemperatureF,Dew PointF,Humidity,Sea Level PressureIn,VisibilityMPH,Wind Direction,Wind SpeedMPH,Gust SpeedMPH,PrecipitationIn,Events,Conditions,WindDirDegrees,DateUTC
12:53 AM,77.0,70.0,79,29.88,10.0,ESE,8.1,-,N/A,,Partly Cloudy,120,2012-10-26 05:53:00
1:53 AM,75.9,70.0,82,29.88,10.0,SE,8.1,-,N/A,,Scattered Clouds,130,2012-10-26 06:53:00
2:53 AM,75.0,71.1,87,29.89,10.0,SE,5.8,-,N/A,,Mostly Cloudy,130,2012-10-26 07:53:00
3:16 AM,75.2,71.6,89,29.93,10.0,NNE,5.8,-,N/A,,Overcast,20,2012-10-26 08:16:00
3:53 AM,75.9,71.1,85,29.91,10.0,NNE,5.8,-,N/A,,Overcast,20,2012-10-26 08:53:00
4:53 AM,64.0,61.0,90,29.94,7.0,NE,16.1,23.0,0.01,Rain,Light Rain,40,2012-10-26 09:53:00
5:53 AM,62.1,57.9,86,29.96,10.0,NE,10.4,-,0.00,,Overcast,40,2012-10-26 10:53:00
6:53 AM,62.1,54.0,75,29.98,10.0,NE,12.7,19.6,N/A,,Overcast,50,2012-10-26 11:53:00
7:53 AM,62.1,54.0,75,30.01,10.0,NE,8.1,18.4,N/A,,Overcast,40,2012-10-26 12:53:00
8:53 AM,63.0,53.1,70,30.05,10.0,NNE,5.8,-,N/A,,Overcast,20,2012-10-26 13:53:00
9:53 AM,60.1,55.0,83,30.10,8.0,NNW,12.7,-,0.00,Rain,Light Rain,340,2012-10-26 14:53:00
10:53 AM,59.0,51.8,77,30.14,10.0,North,17.3,24.2,N/A,,Overcast,350,2012-10-26 15:53:00
11:40 AM,55.4,51.8,88,30.16,1.8,North,17.3,21.9,0.08,Rain,Heavy Rain,360,2012-10-26 16:40:00
11:53 AM,55.0,52.0,89,30.15,1.5,North,15.0,21.9,0.17,Rain,Heavy Rain,360,2012-10-26 16:53:00
12:00 PM,55.4,51.8,88,30.17,3.0,North,12.7,21.9,0.01,Rain,Light Rain,350,2012-10-26 17:00:00
12:37 PM,53.6,53.6,100,30.17,1.8,North,12.7,20.7,0.05,Rain,Heavy Rain,360,2012-10-26 17:37:00
12:53 PM,54.0,53.1,97,30.15,1.2,North,12.7,19.6,0.14,Rain,Heavy Rain,360,2012-10-26 17:53:00
1:02 PM,53.6,53.6,100,30.17,3.0,North,10.4,19.6,0.01,Rain,Rain,360,2012-10-26 18:02:00
1:16 PM,53.6,53.6,100,30.16,4.0,North,11.5,19.6,0.02,Rain,Light Rain,10,2012-10-26 18:16:00
1:22 PM,53.6,51.8,94,30.16,2.5,North,11.5,18.4,0.03,Rain,Heavy Rain,360,2012-10-26 18:22:00
1:35 PM,53.6,53.6,100,30.17,2.5,NNE,9.2,-,0.03,Rain,Light Rain,20,2012-10-26 18:35:00
1:53 PM,54.0,53.1,97,30.14,3.0,NNE,8.1,-,0.06,Rain,Light Rain,20,2012-10-26 18:53:00
2:08 PM,53.6,53.6,100,30.15,2.5,North,10.4,-,0.01,Rain,Light Rain,10,2012-10-26 19:08:00
2:13 PM,53.6,53.6,100,30.15,3.0,North,9.2,-,0.01,Rain,Light Rain,10,2012-10-26 19:13:00
2:29 PM,55.4,53.6,94,30.14,5.0,NNE,9.2,-,N/A,Rain,Light Rain,20,2012-10-26 19:29:00
2:35 PM,53.6,53.6,100,30.14,3.0,NNE,11.5,16.1,0.03,Rain,Heavy Rain,20,2012-10-26 19:35:00
2:51 PM,53.6,53.6,100,30.14,2.5,North,9.2,-,0.07,Rain,Heavy Rain,10,2012-10-26 19:51:00
2:52 PM,54.0,53.1,97,30.13,2.5,North,8.1,-,0.07,Rain,Heavy Rain,360,2012-10-26 19:52:00
3:13 PM,53.6,53.6,100,30.14,4.0,North,9.2,-,0.04,Rain,Light Rain,360,2012-10-26 20:13:00
3:49 PM,53.6,51.8,94,30.14,7.0,North,10.4,-,0.05,Rain,Light Rain,10,2012-10-26 20:49:00
3:53 PM,54.0,52.0,93,30.13,7.0,North,11.5,-,0.05,Rain,Light Rain,360,2012-10-26 20:53:00
4:53 PM,54.0,52.0,93,30.14,7.0,NNE,5.8,-,0.01,Rain,Light Rain,20,2012-10-26 21:53:00
5:53 PM,54.0,53.1,97,30.14,10.0,North,4.6,-,0.00,,Overcast,350,2012-10-26 22:53:00
6:24 PM,55.4,53.6,94,30.17,10.0,NNW,6.9,-,N/A,,Overcast,340,2012-10-26 23:24:00
6:53 PM,55.0,53.1,93,30.17,10.0,NW,6.9,-,0.00,,Overcast,320,2012-10-26 23:53:00
7:53 PM,54.0,52.0,93,30.18,10.0,NNW,8.1,-,0.01,Rain,Light Rain,340,2012-10-27 00:53:00
8:53 PM,54.0,50.0,86,30.20,10.0,North,8.1,-,0.01,,Overcast,350,2012-10-27 01:53:00
9:53 PM,54.0,48.0,80,30.22,10.0,North,6.9,-,N/A,,Overcast,350,2012-10-27 02:53:00
10:53 PM,55.0,48.0,77,30.25,10.0,NNW,4.6,-,N/A,,Overcast,340,2012-10-27 03:53:00
11:53 PM,55.0,48.9,80,30.25,10.0,NNW,4.6,-,N/A,,Overcast,340,2012-10-27 04:53:00